STARLINK-32707, 62478

Orbit data source: Space-Track

STARLINK-32707, 62478 is a payload satellite owned by SpaceX/Seattle (US) in LEO that was launched on Tue, 31 Dec 2024 UTC via an FALCON 9 launch vehicle from the Air Force Eastern Test Range (AFETR). Payload-class satellites include a variety of spacecraft equipped with specific instruments for various scientific and technological missions. These include communications satellites like Starlink; space stations such as the ISS; scientific satellites like the Hubble; Earth observation satellites from companies like Planet Labs, Umbra, and HawkEye 360; GPS; miniature CubeSats for education and research; and military/defense satellites.

Loading next visibility...
Identifier
62478, 2024-254S
Orbit
LEO
Country
Flag of USUS
Related business
Manufacturer
SpaceX/Seattle
Mission
Operational Commercial Communications
Bus & Motor
STARLINK V2M, Unknown motor
Mass
730 kg wet, ~700 kg dry
Launch date (UTC)
2024-12-31 (2 years ago)
Launch vehicle
FALCON 9
Launch site
Air Force Eastern Test Range (AFETR)
Object type
Payload
Rocket body
Debris
Shape & HBR
Box + 2 Pan, 17.7 m
Radar Cross Section
33.884 m², Large (>1 m²)

Expand to show TLE details & history
Last TLE update: 1 day ago

TLE from 1 day ago
0 STARLINK-32707
1 62478U 24254S   26257.40006357  .00018761  00000-0  68934-3 0  9997
2 62478  43.0023  30.6408 0002755 284.8877  75.1670 15.27588517 96511
Epoch: 2026-09-14T09:36Z
TLE epoch observation values (Epoch: 2026-09-14T09:36:05.492Z)
Latitude
0.00002°
Longitude
-106.76297°
Altitude
482.316 km
Speed
7.626 km/s
True Right ascension
02h 02m 33s
True Declination
0° 00' 00"
Sunlit
Object was in full shadow at epoch
Visualization orbit readout
Latitude
Unknown
Longitude
Unknown
Altitude
Unknown
Speed
Unknown
Apparent Right ascension
Unknown
Apparent Declination
Unknown
Sunlit
N/A
Visualization observer readout
Local Sidereal Time
03:45:23
Azimuth
Unknown
Elevation
Unknown
Doppler factor
Unknown
Orbital elements
Apogee altitude
486.859 km
Perigee altitude
483.078 km
Semi-major axis
6,863.105 km
Eccentricity
0.00028
Inclination
43.0023°
RAAN
30.6408°
Arg. of periapsis
284.8877°
True anomaly
75.19752°
Mean anomaly
75.167°
Eccentric anomaly
75.18226°
Mean motion
3.81735 °/min
Orbital period
94.31 mins
BSTAR
0.00068934
Loading maneuver chart data...
Computing Atmospheric mass density...
Loading historical data...
Loading historical data...
Loading historical data...
Loading historical data...
Loading historical data...
Loading historical data...
Loading historical data...

Documentation

Showing up to 5 results
|